Orbital Elements at Epoch 2459200.5 (2020-Dec-17.0) TDB
Reference: JPL 37 (heliocentric ecliptic J2000)
Element | Value | Uncertainty (1-sigma) | Units |
e | .3287610091289822 | 9.8187e-09 | |
a | 2.595173829727297 | 1.2058e-08 | au |
q | 1.741981862601025 | 2.5115e-08 | au |
i | 28.33310925371158 | 7.875e-07 | deg |
node | 156.1264753258421 | 1.3448e-06 | deg |
peri | 235.9977531034583 | 1.9202e-06 | deg |
M | 161.382590156378 | 4.1241e-06 | deg |
tp | 2458515.954551543660 (2019-Feb-01.45455154) | 1.3019e-05 | TDB |
period | 1527.03188866586 4.18 | 1.0643e-05 2.914e-08 | d yr |
n | .2357514618208304 | 1.6431e-09 | deg/d |
Q | 3.448365796853568 | 1.6023e-08 | au |
|
| | Orbit Determination Parameters
Additional Information
|